Location: DaltonSkyGazer Observatory
(42.4858°N, 73.1565°W)
Time: 21:43:39
(UTC-04:00)

Daily predictions for brighter satellites

Satellite Brightness Start Highest point End
(mag) Time Altitude Azimuth Time Altitude Azimuth Time Altitude Azimuth
H-2A R/B 3.8 20:59:57 10° ESE 21:03:44 20° ENE 21:07:34 10° NNE
Cosmos 1741 Rocket 4.1 21:01:19 10° S 21:06:33 64° ESE 21:11:49 10° NNE
Cosmos 1818 3.6 21:02:58 10° NNW 21:08:27 84° ENE 21:13:53 10° SE
YAOGAN 6 2.6 21:05:48 10° SSE 21:09:24 70° ENE 21:13:06 10° N
ATLAS 5 CENTAUR R/B 1.8 21:06:59 10° SSW 21:11:37 83° SE 21:16:42 10° NE
Cosmos 1726 3.8 21:11:47 10° NNE 21:14:31 19° ENE 21:17:14 10° ESE
RESURS DK-1 3.6 21:13:28 10° N 21:17:09 29° NE 21:20:49 10° ESE
Cosmos 1076 Rocket 3.7 21:15:19 10° S 21:19:34 54° E 21:23:49 10° NNE
Cosmos 1802 Rocket 4.3 21:14:33 10° N 21:20:31 51° ENE 21:26:28 10° SSE
Spot 1 4.3 21:16:32 10° S 21:20:35 67° WSW 21:24:49 10° NNW
Cosmos 1727 Rocket 4.4 21:15:37 10° SSW 21:21:55 71° W 21:28:17 10° N
Cosmos 1408 Rocket 4.2 21:19:02 10° SSE 21:22:58 36° E 21:26:55 10° NNE
Cosmos 2237 Rocket 4.0 21:22:26 10° NW 21:27:04 27° WSW 21:31:42 10° SSW
ERBS 4.0 21:26:59 10° NNW 21:29:54 26° NNE 21:32:48 10° E
Cosmos 1939 Rocket 4.1 21:27:14 10° S 21:31:01 40° W 21:34:53 10° NNW
Cosmos 2221 2.8 21:28:36 10° NNW 21:32:59 71° W 21:37:21 10° S
Cosmos 1340 Rocket 4.0 21:29:29 10° SSW 21:33:21 45° WNW 21:37:17 10° N
CZ-4B DEB 3.9 21:32:07 10° S 21:34:54 38° W 21:37:43 10° NNW
Cosmos 1603 4.0 21:30:05 10° NNW 21:35:39 54° ENE 21:40:30 13° SE
Envisat 4.5 21:31:34 10° SSW 21:36:12 35° W 21:40:52 10° NNW
Meteor 1-29 3.9 21:34:46 10° N 21:38:07 50° WNW 21:41:28 10° SSW
Tiangong 1 0.8 21:36:32 10° W 21:39:21 82° N 21:42:08 10° E
Cosmos 371 Rocket 4.0 21:39:00 10° N 21:43:33 39° ENE 21:47:08 15° SE
Cosmos 2208 Rocket 4.4 21:38:45 10° NNW 21:44:02 67° WSW 21:49:23 10° S
Cosmos 1674 2.9 21:40:30 10° SSW 21:44:14 72° W 21:48:00 10° N
MetOp-A 4.1 21:40:26 10° SSE 21:45:47 85° ENE 21:51:11 10° NNW
Cosmos 2016 Rocket 4.0 21:40:55 10° N 21:47:11 69° E 21:52:56 12° SSE
ARGOS 3.2 21:42:43 12° SSE 21:47:43 69° ENE 21:53:07 10° N
Okean 3 Rocket 4.4 21:43:49 10° SSW 21:48:13 52° W 21:52:36 10° N
CZ-3B R/B 4.0 21:47:09 10° SW 21:50:13 77° SE 22:01:04 10° NE
Cosmos 1943 4.1 21:45:28 10° N 21:50:42 37° ENE 21:54:57 15° ESE
SPOT 5 3.0 21:47:02 14° SSE 21:51:11 66° ENE 21:56:16 10° N
Lacrosse 5 1.9 21:46:17 10° NW 21:51:21 75° NE 21:55:19 17° SE
Cosmos 1763 Rocket 4.2 21:47:05 10° N 21:51:54 39° ENE 21:55:27 17° SE
Cosmos 1908 3.9 21:48:24 10° NNW 21:52:11 52° W 21:55:56 10° S
SL-16 R/B 3.3 21:47:00 10° NW 21:52:16 40° WSW 21:57:30 10° S
SPOT 1/Viking Rocket 3.8 21:54:30 16° SE 21:58:28 57° ENE 22:03:30 10° N
Cosmos 1766 Rocket 3.6 21:55:55 10° S 22:00:14 81° W 22:04:37 10° N
KORONAS-FOTON 4.1 21:57:40 10° SSW 22:01:27 67° W 22:05:14 10° N
Cosmos 1242 Rocket 3.9 22:00:08 10° NNW 22:03:37 38° W 22:07:04 10° SSW
Abrixas rocket 2.6 22:00:41 10° WNW 22:03:53 57° NNE 22:06:04 18° E
Cosmos 1328 Rocket 3.6 22:00:48 10° N 22:05:07 62° E 22:07:53 21° SSE
USA 245 3.3 22:07:27 20° S 22:09:45 76° W 22:14:01 10° NNW
Cosmos 1515 Rocket 3.8 22:06:48 10° N 22:11:02 51° E 22:13:23 24° SE
Cosmos 2233 Rocket 4.4 22:05:31 10° N 22:11:30 46° ENE 22:15:25 21° SE
Landsat 7 4.2 22:08:35 21° SE 22:11:31 50° ENE 22:16:08 10° N
Cosmos 1151 Rocket 3.7 22:07:24 10° N 22:11:33 40° ENE 22:13:43 23° SE
YAOGAN 11 4.3 22:08:19 16° S 22:11:50 75° WSW 22:16:25 10° NNW
USA 234 3.2 22:09:11 10° NE 22:15:43 69° SE 22:22:13 10° SW
H-2A R/B 3.3 22:13:53 19° ESE 22:15:57 28° ENE 22:19:35 10° N
Cosmos 1743 Rocket 3.5 22:13:15 18° S 22:16:21 68° E 22:20:38 10° NNE
Cosmos 2228 Rocket 3.1 22:14:37 10° N 22:19:14 81° E 22:22:04 23° SSE
Cosmos 468 Rocket 4.3 22:17:26 10° NNW 22:22:29 61° WSW 22:26:04 19° S
Cosmos 1703 4.2 22:22:24 27° SE 22:23:32 32° E 22:27:07 10° NNE
SL-08 RB Rocket 4.0 22:21:53 19° S 22:25:09 63° W 22:29:44 10° NNW
Terra 2.2 22:24:01 25° SE 22:26:28 49° ENE 22:31:04 10° N
ERS-1 Rocket 4.5 22:22:27 10° SSW 22:26:54 31° W 22:31:24 10° NNW
Meteor 1-11 4.3 22:23:46 19° S 22:27:53 62° E 22:33:37 10° NNE
Nimbus 7 Rocket 4.4 22:25:23 10° NNE 22:31:27 87° WNW 22:37:24 10° SSW
H-2A ROCKET BODY 3.9 22:28:59 10° SSW 22:33:17 25° SE 22:45:24 10° E
Cosmos 332 Rocket 4.3 22:29:17 10° NNW 22:34:04 55° WSW 22:37:02 22° S
Cosmos 1503 Rocket 4.4 22:32:17 27° SSE 22:34:29 41° ESE 22:39:19 10° NE
Cosmos 2123 Rocket 4.4 22:36:26 10° SSW 22:42:32 63° W 22:48:42 10° N
Meteor 1-27 4.2 22:36:44 10° N 22:42:35 81° E 22:45:45 28° SSE
H-2A R/B 2.5 22:39:05 21° S 22:42:38 60° W 22:48:01 10° NNW
Cosmos 304 Rocket 4.2 22:40:17 10° N 22:44:57 48° ENE 22:46:52 31° ESE
Cosmos 1626 2.1 22:44:38 44° SSE 22:45:33 62° E 22:49:14 10° NNE
Cosmos 2058 2.8 22:44:53 34° S 22:46:40 79° E 22:50:54 10° N
Cosmos 1726 4.0 22:46:45 10° NW 22:49:48 25° W 22:52:04 14° SW
CZ-4B R/B 4.2 22:45:03 10° NNE 22:49:59 39° E 22:51:29 32° SE
Cosmos 2263 Rocket 2.1 22:46:57 17° SSW 22:51:21 80° ESE 22:56:57 10° NNE
Cosmos 540 Rocket 3.9 22:46:27 10° N 22:51:28 50° ENE 22:53:35 31° ESE
Cosmos 1300 4.2 22:50:09 10° NNW 22:53:33 31° W 22:55:36 19° SW
RESURS DK-1 4.0 22:51:39 10° NW 22:55:06 25° WSW 22:56:54 19° SW
Spot 4 4.3 22:55:05 34° SE 22:56:53 51° ENE 23:01:37 10° N
Cosmos 2285 Rocket 4.1 22:52:14 10° NNW 22:58:36 70° ENE 23:01:42 32° SE
Sich 1 4.1 22:59:55 28° E 23:00:13 28° E 23:03:54 10° NNE
ERBS 3.3 23:03:30 10° WNW 23:06:28 34° WSW 23:06:28 34° WSW
deb Chang Zheng 4 3.5 23:03:47 10° NNE 23:08:11 79° ESE 23:09:31 44° S
PSLV R/B 3.3 23:09:22 63° N 23:09:22 63° N 23:11:52 10° N
DELTA 2 DEB (DPAF) 4.4 23:11:06 43° SE 23:12:14 58° ENE 23:16:38 10° N
Cosmos 1707 Rocket 4.0 23:08:37 10° N 23:13:00 51° ENE 23:13:54 43° ESE
Cosmos 2151 3.9 23:11:00 22° SW 23:13:23 44° WNW 23:17:32 10° N
Tiangong 1 2.7 23:12:10 10° W 23:13:24 23° W 23:13:24 23° W
Cosmos 1354 Rocket 4.0 23:16:06 27° SSW 23:19:02 78° WNW 23:24:19 10° NNE
Cosmos 1844 Rocket 3.4 23:24:43 32° ESE 23:25:09 32° ESE 23:30:03 10° NE
Cosmos 1072 Rocket 4.5 23:19:02 10° N 23:25:25 84° E 23:28:03 38° SSE
Cosmos 1455 2.4 23:23:14 10° NNW 23:27:04 59° W 23:27:33 54° SW
CZ-4C R/B 2.4 23:28:14 43° SE 23:28:49 45° ESE 23:34:21 10° NE
Cosmos 1666 Rocket 3.6 23:28:28 56° SE 23:29:03 63° E 23:33:28 10° NNE
Cosmos 1464 Rocket 3.9 23:24:11 10° N 23:30:23 84° E 23:32:45 41° SSE
Lacrosse 5 3.6 23:30:19 10° WNW 23:33:48 19° WSW 23:34:30 18° SW
Cosmos 1943 4.3 23:29:39 10° NW 23:34:40 33° WSW 23:36:46 25° SW
Cosmos 1869 3.1 23:33:48 10° N 23:37:45 86° E 23:37:55 82° SE
Cosmos 1805 Rocket 3.7 23:39:13 48° SW 23:40:12 64° W 23:44:31 10° N
Cosmos 1633 Rocket 2.9 23:44:55 71° SE 23:45:17 77° E 23:49:39 10° N
CZ-4C R/B 3.6 23:46:43 59° SW 23:47:14 65° W 23:51:37 10° NNW
Cosmos 967 Rocket 4.4 23:41:36 10° NNW 23:47:59 83° WSW 23:50:08 45° SSE
Cosmos 783 Rocket 4.4 23:43:01 10° NNW 23:48:21 85° WSW 23:49:34 55° S
SL-24 R/B - RUBIN 2 4.5 23:43:47 10° NNW 23:49:13 53° NE 23:50:52 37° ESE
Cosmos 1400 Rocket 3.5 23:49:33 43° E 23:49:33 43° E 23:53:14 10° NNE
H-2A R/B 3.5 23:51:01 24° WSW 23:51:55 26° W 23:55:30 10° NW
SME Rocket 3.2 23:52:50 54° WSW 23:53:09 56° WSW 23:57:38 10° NNW
